Theta_e
308 308 309 309 309 310 311 311 311 312 313 315 317 316 317 315 314 315 322 321 321 317 315 318 321 320 321 323 327 329 330 330 332 333 336 335 337 335 333 330 328 338 345 343 343
308 309 309 309 311 311 311 310 311 313 315 317 316 318 316 314 314 323 322 319 318 317 317 322 322 322 322 323 327 328 329 331 332 332 332 333 334 336 333 331 328 335 341 337 336
308 309 311 311 311 311 311 311 313 315 316 316 317 318 315 316 321 325 319 318 318 319 319 323 323 323 323 324 325 328 329 330 329 328 328 330 332 333 330 329 329 333 337 334 335
310 312 312 312 312 312 312 312 314 315 316 315 318 317 315 317 327 321 318 319 319 319 322 323 323 324 325 327 326 326 327 327 327 326 326 328 332 330 327 326 327 332 334 334 334
311 312 313 312 312 312 312 313 314 316 316 316 318 317 316 321 323 320 318 319 319 320 324 323 324 324 326 327 327 326 327 326 326 325 326 327 328 328 327 326 325 330 333 333 333
310 312 312 312 312 312 312 313 315 316 316 317 318 317 316 323 321 320 320 320 322 322 322 323 323 325 326 327 327 327 327 326 325 325 326 326 326 326 326 326 324 329 331 332 332
311 311 311 312 312 312 312 312 314 316 316 317 317 317 323 324 321 320 319 320 320 321 322 323 322 323 325 326 326 326 326 326 325 325 325 325 325 325 327 326 323 325 328 331 332
310 311 311 311 312 314 313 312 313 316 315 317 317 317 325 320 320 320 320 320 320 320 321 322 322 322 324 325 325 324 325 324 325 325 324 324 323 326 326 324 323 323 326 330 331
311 311 313 318 319 318 318 315 312 312 314 317 317 319 326 321 319 320 320 320 321 320 320 321 321 322 324 324 325 324 323 324 325 326 325 324 324 327 326 325 325 324 325 329 331
311 314 318 319 319 318 318 318 313 313 315 316 318 322 324 322 321 320 320 319 320 321 321 321 321 323 324 325 323 325 325 326 325 326 326 325 324 329 328 326 326 325 325 328 331
313 318 319 319 319 321 319 324 323 320 323 324 325 324 322 322 321 321 320 321 322 322 324 324 323 323 324 325 325 325 325 325 326 327 326 325 324 326 329 329 327 325 325 326 330
316 318 319 320 319 323 324 326 324 325 325 323 323 322 322 322 323 322 321 322 324 324 326 325 325 324 325 324 324 325 324 324 326 327 326 326 325 327 327 329 327 326 326 326 331
316 318 320 320 321 325 325 321 322 323 328 325 322 323 322 322 324 324 322 323 323 325 325 325 326 325 324 323 322 322 323 324 326 327 327 327 326 325 327 329 328 326 327 328 332
315 316 318 320 322 325 326 322 325 325 332 326 324 324 323 323 323 322 323 323 324 324 326 325 326 324 324 324 325 325 326 326 325 325 325 326 327 329 329 330 329 328 328 330 331
319 316 315 316 325 325 323 323 326 327 339 328 325 324 324 324 324 324 323 325 326 326 325 326 326 325 324 325 326 325 325 326 326 326 326 325 326 326 329 332 331 329 329 330 331
319 316 315 323 322 324 323 324 326 332 336 328 324 324 324 324 323 324 323 324 324 326 326 326 325 325 325 325 326 325 324 324 325 325 327 329 330 330 330 330 331 330 330 330 331
320 315 315 319 326 324 323 324 330 334 333 328 325 325 325 325 324 324 325 326 327 328 328 329 329 326 325 325 325 325 327 328 329 330 332 331 330 329 331 330 326 331 330 329 330
317 317 325 323 325 324 324 327 331 331 329 328 327 326 325 326 325 325 326 326 327 328 328 328 328 328 327 326 325 326 330 328 328 328 330 330 329 328 326 325 325 325 325 328 328
314 323 327 329 324 324 326 330 331 331 328 327 327 326 327 327 327 327 327 328 327 328 328 328 328 328 327 326 325 326 328 328 330 329 327 328 329 327 326 326 325 324 324 325 325
312 322 327 327 324 324 328 329 329 327 326 325 326 328 329 329 329 328 329 330 329 328 327 327 328 327 327 326 326 325 325 327 327 329 329 327 328 330 327 326 325 324 323 323 323
315 326 327 326 323 324 329 329 329 325 325 326 327 328 328 328 329 328 327 329 328 327 326 327 328 328 328 328 328 327 328 327 329 330 332 329 327 327 325 323 323 322 321 321 321
320 325 326 324 322 324 327 328 325 326 324 325 326 326 328 328 328 328 328 330 326 324 324 327 331 332 329 327 328 327 327 327 329 328 327 331 330 325 323 322 322 321 320 320 319
320 319 321 321 322 325 327 327 325 325 325 326 327 327 327 327 328 327 326 326 325 324 328 328 330 330 330 329 328 329 329 326 325 326 326 328 325 325 322 322 321 320 319 319 318
320 322 322 322 321 325 328 327 325 324 324 324 325 325 326 326 326 326 326 326 325 324 319 324 326 327 328 327 327 328 328 326 326 330 325 325 325 325 323 323 321 319 318 317 316
322 321 322 321 325 323 322 324 324 325 324 323 324 324 325 326 327 327 327 327 326 322 323 326 328 327 327 327 327 326 325 324 324 324 327 325 324 324 324 322 320 318 317 316 317
320 321 322 320 319 320 317 322 321 322 323 324 324 324 325 326 326 327 327 328 327 326 327 326 329 328 328 326 326 326 325 322 321 320 321 322 323 323 321 319 317 317 318 318 316
320 318 317 316 320 321 320 321 322 322 322 322 322 324 325 326 325 325 324 323 323 324 325 328 330 328 329 326 326 328 323 324 323 322 322 322 322 320 319 316 318 318 316 315 314
Wind_Speed
2 1 2 3 4 5 4 3 4 4 5 4 2 2 5 5 6 6 4 6 8 12 6 4 8 9 11 15 19 22 12 15 11 16 19 11 18 9 9 13 17 16 21 18 14
3 3 4 5 4 3 3 3 4 5 5 3 1 4 5 6 9 10 10 10 10 8 5 7 7 7 14 17 22 13 13 21 11 11 6 12 12 17 20 12 19 15 16 13 12
4 6 6 5 4 3 3 3 4 5 4 1 3 4 5 5 10 6 5 5 6 6 6 7 9 10 16 19 22 18 16 20 17 8 15 9 15 14 5 5 19 22 17 12 11
5 6 6 4 3 2 2 3 4 4 2 2 5 4 8 5 3 4 2 2 3 4 5 10 8 12 17 16 15 17 18 19 13 11 10 13 16 7 19 12 13 20 16 14 11
4 4 4 3 2 1 1 2 3 3 1 3 5 4 8 10 10 1 2 1 2 5 10 12 13 12 17 12 12 8 17 1 5 7 8 7 1 5 16 9 2 12 13 12 11
3 2 1 1 1 1 1 2 4 4 2 2 4 4 7 15 3 1 2 5 6 10 13 11 12 10 13 18 3 11 12 3 7 10 2 6 5 5 12 6 2 5 7 11 11
2 1 0 1 1 2 2 3 5 5 4 2 5 7 9 13 2 2 4 6 5 6 9 5 9 11 15 11 12 9 11 8 9 8 5 5 14 10 10 4 7 10 12 9 7
2 1 1 1 2 3 3 4 6 6 5 4 7 8 9 4 4 5 6 7 7 8 8 8 9 14 17 14 4 13 11 14 16 15 7 4 14 15 14 8 10 13 14 12 11
2 1 3 3 5 5 3 3 5 6 6 6 7 8 13 4 6 5 6 8 6 7 9 10 10 15 15 10 10 12 13 17 17 19 10 12 11 11 7 7 8 10 14 14 12
2 3 3 4 7 5 3 1 4 4 6 9 12 11 10 3 2 4 4 6 6 8 9 10 11 11 12 10 13 16 17 14 14 15 7 14 10 11 11 10 11 12 14 16 14
2 2 2 3 5 5 1 6 4 5 12 13 2 9 1 2 1 3 3 7 8 8 10 16 10 13 16 15 16 18 14 16 10 11 8 7 12 13 16 10 11 15 18 18 18
1 2 2 2 3 2 4 6 4 8 8 17 7 9 5 3 5 4 3 10 10 10 16 7 13 13 7 10 13 17 10 16 2 8 3 6 14 14 15 11 11 12 13 12 19
3 3 2 2 2 2 4 7 7 6 7 10 9 9 6 7 6 3 4 9 9 13 10 11 13 5 7 10 10 14 14 17 10 7 2 8 16 19 19 14 10 12 9 11 16
6 4 5 4 6 5 2 8 6 4 5 11 9 6 5 6 6 2 4 7 6 7 12 8 5 8 8 10 12 13 11 14 7 11 11 14 15 17 9 15 11 9 8 9 10
9 4 3 6 6 9 7 8 4 2 5 11 12 6 7 10 4 9 2 7 9 12 3 10 4 3 9 8 9 11 10 12 14 14 16 18 14 17 19 14 13 8 9 7 10
10 4 1 4 5 6 8 8 5 6 4 7 6 8 9 11 6 5 4 2 5 8 8 12 2 7 10 9 8 11 14 15 16 15 14 5 11 13 5 4 10 14 11 9 11
10 3 3 2 9 9 9 7 6 8 8 8 6 6 10 9 5 3 6 7 7 5 12 4 16 6 2 10 11 9 10 10 12 10 8 5 4 11 16 9 4 17 13 12 11
9 3 3 5 8 9 7 7 8 8 4 7 4 4 9 3 3 6 7 10 12 4 9 11 7 4 4 4 8 11 6 8 15 13 9 7 6 6 13 18 17 14 14 9 12
11 5 7 7 8 8 10 8 10 11 9 7 9 6 12 9 5 8 9 12 3 8 7 9 8 3 6 5 7 8 7 7 9 13 13 12 5 10 6 9 12 11 10 8 6
13 9 12 5 7 6 8 14 14 4 6 6 10 9 10 7 7 4 10 7 3 6 7 8 14 15 7 1 9 11 10 9 7 9 12 11 10 2 3 10 12 13 11 11 9
10 9 3 3 7 10 9 12 4 9 7 4 9 10 8 10 11 7 10 11 8 8 8 12 11 14 16 3 11 3 8 3 4 4 10 11 4 9 8 8 7 9 14 9 8
7 7 1 5 10 12 12 9 5 8 2 6 4 9 9 10 7 11 13 8 6 8 8 9 5 9 17 10 12 13 15 12 7 10 9 8 5 10 5 9 6 8 8 11 13
10 15 7 4 6 8 6 5 0 5 6 4 5 2 8 5 5 8 7 9 8 8 8 11 4 7 9 7 7 7 11 2 5 4 8 10 8 9 5 12 13 12 12 14 17
8 5 7 4 8 7 11 5 8 6 7 8 10 11 6 10 8 5 9 5 5 4 3 2 6 12 12 16 8 6 11 10 7 6 9 11 15 8 12 3 7 12 12 17 20
7 4 5 6 9 10 9 11 11 9 6 6 5 10 9 10 11 11 9 6 10 8 3 3 8 13 16 18 18 16 13 14 15 13 10 14 10 12 12 9 13 19 21 21 18
12 8 11 13 8 9 7 9 12 10 5 7 13 6 11 8 9 11 11 8 5 5 2 2 8 11 14 18 16 17 13 11 14 15 12 8 5 11 13 18 21 20 19 20 21
8 9 8 13 9 7 10 9 5 8 10 10 9 9 11 11 11 10 7 7 10 9 10 10 7 8 13 16 17 11 8 8 5 6 6 5 7 8 12 18 18 17 18 18 19
Wind_Direction
45 102 153 156 154 154 156 160 161 159 151 143 136 308 294 267 226 211 238 266 244 287 265 292 248 251 243 250 246 247 269 270 295 301 210 132 127 98 143 149 87 83 100 124 137
54 101 125 132 137 144 152 161 160 157 151 142 342 316 285 252 220 251 241 280 264 258 248 267 243 222 235 234 244 233 253 265 319 304 113 159 155 146 178 188 125 114 116 135 139
78 104 116 120 123 130 145 159 163 162 156 67 350 313 266 266 293 218 236 257 253 245 242 294 284 258 234 220 228 226 254 277 332 3 328 327 125 132 260 139 149 144 138 150 153
92 106 108 106 106 111 135 160 168 168 161 8 350 299 244 267 327 169 288 260 255 278 271 261 243 248 248 240 238 224 241 263 335 359 280 282 122 156 79 51 58 128 143 152 169
96 105 105 98 92 86 133 176 184 190 217 359 354 290 239 266 245 340 166 238 248 266 271 266 242 236 256 252 234 249 275 254 319 295 279 332 304 109 100 90 100 119 144 154 168
87 103 83 76 41 357 283 220 210 213 234 324 339 322 268 272 92 156 121 239 281 254 290 266 281 296 297 290 233 253 255 175 252 259 263 303 258 192 112 112 166 162 178 176 169
53 77 70 1 344 323 277 244 228 229 240 276 307 314 275 267 232 226 225 249 277 277 278 303 302 302 251 294 267 305 278 219 228 245 266 270 270 165 123 147 210 189 211 176 161
26 41 36 25 16 349 313 258 231 230 240 254 289 298 261 314 231 232 244 262 255 259 265 291 283 282 277 280 315 255 240 257 214 209 175 184 266 209 148 177 214 204 212 201 187
20 96 102 56 11 345 318 256 232 236 224 247 270 251 276 302 200 228 262 261 268 266 265 274 270 269 268 258 248 226 249 233 269 173 199 186 266 106 137 183 222 217 212 195 198
40 123 93 48 24 36 78 143 196 205 228 241 249 272 243 82 134 270 250 246 259 268 260 248 245 251 246 238 246 238 222 230 245 175 187 242 218 146 186 214 219 235 231 206 199
53 134 52 22 35 47 303 318 234 232 214 253 301 254 279 199 238 238 230 244 255 248 262 223 234 238 248 246 254 282 308 307 306 118 179 200 256 208 182 194 248 254 233 214 188
349 212 337 14 26 49 336 271 351 321 276 232 255 269 269 303 229 197 260 247 235 268 233 270 244 261 328 342 322 311 297 275 208 137 190 276 275 268 278 189 239 262 251 237 165
324 246 269 315 316 246 332 333 317 302 269 176 217 231 206 226 289 130 278 305 269 280 264 269 304 60 334 298 271 271 262 270 322 94 152 259 263 267 247 180 208 240 240 226 163
350 287 254 274 299 323 279 341 334 288 271 153 190 213 200 231 212 316 307 294 276 290 345 278 27 4 301 273 275 272 3 336 326 304 288 274 299 244 237 170 177 197 214 202 175
353 311 257 264 304 350 324 329 308 304 280 164 150 123 217 225 105 167 300 278 279 330 321 300 343 263 272 316 3 302 12 319 305 292 289 280 275 271 259 160 157 169 173 181 172
352 328 204 341 298 327 326 313 318 237 308 144 158 201 195 220 207 137 238 296 298 295 272 283 16 289 299 346 315 323 304 290 284 266 258 357 12 324 33 66 126 176 175 190 168
347 336 240 263 321 317 311 285 240 248 200 156 200 182 231 191 210 228 287 244 278 283 293 253 257 150 8 290 262 224 270 286 274 264 239 11 157 242 178 163 20 149 167 180 149
334 293 272 265 315 318 312 252 264 261 253 29 342 306 269 275 184 253 271 275 277 297 311 315 303 125 142 297 323 314 234 277 310 306 329 243 242 89 48 47 40 44 31 140 131
327 295 298 243 309 320 291 244 241 353 23 353 313 243 261 190 208 289 241 266 349 46 336 321 292 255 246 307 305 302 295 4 283 285 286 312 64 7 4 81 65 52 23 31 59
331 296 261 210 308 306 269 269 293 35 327 294 279 314 307 326 190 269 279 62 39 73 349 302 297 299 127 317 269 251 300 309 288 309 286 301 10 164 66 54 39 36 53 40 10
326 277 156 263 288 269 256 269 347 79 333 319 313 321 304 295 322 315 292 82 41 354 347 294 283 287 292 255 329 171 259 6 287 271 314 301 49 75 62 50 29 10 17 13 348
312 275 147 322 275 244 253 358 14 307 317 287 277 288 305 320 319 311 309 60 41 8 323 341 316 297 299 285 251 314 303 304 285 293 309 322 281 115 70 63 40 12 358 6 351
311 294 278 316 262 269 251 257 333 304 276 301 293 311 316 300 307 293 309 86 47 14 21 352 280 297 291 70 331 303 292 238 275 282 282 289 283 0 23 13 16 5 353 346 350
295 295 209 237 271 299 325 293 260 163 284 284 292 310 298 288 268 238 290 110 133 112 93 345 280 274 279 298 254 222 267 269 250 279 269 266 297 167 85 233 337 1 357 338 343
266 313 3 301 43 338 325 309 306 284 177 281 290 272 269 287 292 286 277 171 173 141 208 222 288 291 289 292 300 301 289 275 280 274 244 265 288 27 24 8 357 358 344 342 2
298 346 350 291 294 294 284 274 268 277 316 282 290 283 308 302 294 292 345 4 336 191 264 245 280 292 286 282 276 300 304 303 281 276 284 310 41 4 14 9 353 355 6 0 356
343 295 281 288 275 251 266 290 285 13 319 284 309 320 291 3 347 13 15 324 295 298 302 304 280 293 292 304 319 301 305 334 13 3 344 320 37 38 17 359 21 27 16 354 344